Camarillo, CA

11:35 PM PDT on August 19, 2017 (GMT -0700)
Camarillo

Weather History for KCMA - April, 2013

Change the Weather History Date:

Wednesday, April 10, 2013

  Actual Average Record
Temperature  
Mean Temperature 65 °F 58 °F  
Max Temperature 83 °F 68 °F 92 °F (1968)
Min Temperature 46 °F 48 °F 37 °F (1953)
Degree Days  
Heating Degree Days 0 7  
Month to date heating degree days 25 75  
Since 1 July heating degree days 1367 1688  
Cooling Degree Days 0 0  
Month to date cooling degree days 0 0  
Year to date cooling degree days 24 13  
Growing Degree Days 14 (Base 50)    
Moisture  
Dew Point 38 °F    
Average Humidity 38    
Maximum Humidity 67    
Minimum Humidity 9    
Precipitation  
Precipitation 0.00 in 0.01 in 0.23 in (2012)
Month to date precipitation 0.00 0.20  
Year to date precipitation 2.07 10.03  
Since 1 July precipitation 4.78  
Sea Level Pressure  
Sea Level Pressure 30.05 in    
Wind  
Wind Speed 5 mph (West)    
Max Wind Speed 18 mph    
Max Gust Speed 23 mph    
Visibility 10 miles    
Events      
T = Trace of Precipitation, MM = Missing Value Source: NWS Daily Summary

Daily Weather History Graph

Daily Weather History Graph

Search for Another Location

Airport or City:

Trip Planner

Search our weather history database for the weather conditions in past years. The results will help you decide how hot, cold, wet, or windy it might be!

Date:

Astronomy

Apr. 10, 2013 Rise Set
Actual Time 6:31 AM PDT 7:24 PM PDT
Civil Twilight 6:05 AM PDT 7:50 PM PDT
Nautical Twilight 5:35 AM PDT 8:20 PM PDT
Astronomical Twilight 5:04 AM PDT 8:51 PM PDT
Moon 6:31 AM PDT (4/10) 8:02 PM PDT (4/10)
Length of Visible Light 13h 44m
Length of Day
12h 53m
New Moon, 0% of the Moon is Illuminated
Apr 10
New Moon
Apr 18
First Quarter
Apr 25
Full
May 2
Last Quarter
May 9
New

Hourly Weather History & Observations

Time (PDT) Temp. Windchill Dew Point Humidity Pressure Visibility Wind Dir Wind Speed Gust Speed Precip Events Conditions
12:55 AM 55.9 °F - 37.9 °F 51% 30.03 in 10.0 mi NNW 3.5 mph - N/A   Clear
1:55 AM 55.0 °F - 35.1 °F 47% 30.03 in 10.0 mi West 3.5 mph - N/A   Clear
2:55 AM 53.1 °F - 36.0 °F 52% 30.03 in 10.0 mi Calm Calm - N/A   Clear
3:55 AM 52.0 °F - 33.1 °F 49% 30.03 in 10.0 mi Calm Calm - N/A   Clear
4:55 AM 50.0 °F - 35.1 °F 57% 30.05 in 10.0 mi Calm Calm - N/A   Clear
5:55 AM 46.9 °F - 34.0 °F 61% 30.07 in 10.0 mi Calm Calm - N/A   Clear
6:55 AM 46.0 °F 44.8 °F 34.0 °F 63% 30.09 in 10.0 mi WNW 3.5 mph - N/A   Clear
7:55 AM 57.9 °F - 35.1 °F 42% 30.12 in 10.0 mi Calm Calm - N/A   Clear
8:55 AM 69.1 °F - 35.1 °F 29% 30.12 in 10.0 mi Calm Calm - N/A   Clear
11:55 AM 81.0 °F - 30.9 °F 16% 30.11 in 10.0 mi West 12.7 mph - N/A   Clear
12:55 PM 81.0 °F - 30.0 °F 16% 30.09 in 10.0 mi West 15.0 mph - N/A   Clear
1:55 PM 81.0 °F - 28.0 °F 14% 30.08 in 10.0 mi WSW 13.8 mph - N/A   Clear
2:55 PM 80.1 °F - 30.9 °F 17% 30.06 in 10.0 mi West 10.4 mph - N/A   Clear
3:55 PM 81.0 °F - 30.0 °F 16% 30.03 in 10.0 mi WSW 10.4 mph - N/A   Clear
4:55 PM 75.0 °F - 39.9 °F 28% 30.02 in 10.0 mi West 12.7 mph - N/A   Clear
5:55 PM 73.0 °F - 42.1 °F 33% 30.01 in 10.0 mi SSW 9.2 mph - N/A   Clear
6:55 PM 66.9 °F - 46.9 °F 49% 30.01 in 10.0 mi SSW 5.8 mph - N/A   Clear
7:55 PM 62.1 °F - 48.0 °F 60% 30.02 in 10.0 mi SW 5.8 mph - N/A   Clear
8:55 PM 60.1 °F - 48.9 °F 67% 30.02 in 9.0 mi Calm Calm - N/A   Clear
9:55 PM 59.0 °F - 48.9 °F 69% 30.02 in 9.0 mi Calm Calm - N/A   Clear
10:55 PM 59.0 °F - 48.0 °F 67% 30.01 in 9.0 mi Calm Calm - N/A   Clear
11:55 PM 57.0 °F - 46.0 °F 67% 30.01 in 9.0 mi West 3.5 mph - N/A   Clear